Location: Kumla
(59.1265°N, 15.1401°E)
Time: 16:56:27
(UTC+01:00)

Transit 2A - Pass Details

Date: 05 December 2023
Orbit: 600 x 953 km, 66.7° (Epoch: 27 February)

Event Time Altitude Azimuth Distance (km) Brightness Sun altitude
Rises 19:25:45 0° 280° (W) 3,000 10.2 -31.3°
Reaches altitude 10° 19:28:20 10° 291° (WNW) 2,043 9.1 -31.6°
Enters shadow 19:30:51 25° 317° (NW) 1,280 7.6 -31.9°
Maximum altitude 19:32:25 31° 354° (N) 1,084 - -32.1°
Drops below altitude 10° 19:36:22 10° 58° (ENE) 1,959 - -32.6°
Sets 19:38:47 0° 69° (ENE) 2,856 - -32.9°
